WMT4902 EPKK-LIPZ

Flight info

Callsign WMT4902
Flight time N/A
Altitude 34000
Route BABKO DCT VADEX DCT KOPAT DCT MAREG DCT NIGSI DCT RADLY DCT ROSKA M859 TULIK DCT BASOG
Aircraft A21N/M-SDE1E2E3FGIJ1J4RWXY/LB1

Departure

Time N/A
Airport Kraków John Paul II International Airport (EPKK)

Arrival

Time 2026-04-30 10:50
Airport Venice Marco Polo Airport (LIPZ)
Time Latitude Longitude Altitude Speed Heading
2026-04-30 10:01 48.01128 16.76231 34405 ft 464 kts 219°
2026-04-30 10:01 47.98532 16.73252 34412 ft 464 kts 219°
2026-04-30 10:02 47.90877 16.64484 34410 ft 464 kts 219°
2026-04-30 10:02 47.85750 16.58655 34410 ft 463 kts 219°
2026-04-30 10:03 47.80651 16.52872 34413 ft 464 kts 219°
2026-04-30 10:03 47.75551 16.47087 34405 ft 463 kts 219°
2026-04-30 10:04 47.70423 16.41275 34404 ft 463 kts 219°
2026-04-30 10:05 47.60584 16.30145 34389 ft 462 kts 219°
2026-04-30 10:05 47.55476 16.24374 34379 ft 462 kts 219°
2026-04-30 10:06 47.50378 16.18648 34363 ft 461 kts 219°
2026-04-30 10:06 47.45294 16.12958 34349 ft 461 kts 219°
2026-04-30 10:07 47.40175 16.07243 34344 ft 460 kts 219°
2026-04-30 10:07 47.35082 16.01526 34348 ft 459 kts 220°
2026-04-30 10:08 47.30084 15.95703 34360 ft 459 kts 220°
2026-04-30 10:08 47.25087 15.89877 34362 ft 458 kts 220°
2026-04-30 10:09 47.20084 15.84079 34357 ft 457 kts 220°
2026-04-30 10:09 47.15105 15.78326 34353 ft 457 kts 220°
2026-04-30 10:10 47.10157 15.72629 34350 ft 457 kts 220°
2026-04-30 10:10 47.05249 15.66990 34360 ft 457 kts 220°
2026-04-30 10:11 47.00259 15.61272 34365 ft 455 kts 220°
2026-04-30 10:11 46.95272 15.55574 34366 ft 455 kts 220°
2026-04-30 10:12 46.90284 15.49883 34371 ft 455 kts 220°
2026-04-30 10:12 46.85294 15.44234 34363 ft 456 kts 220°
2026-04-30 10:13 46.80277 15.38561 34361 ft 455 kts 220°
2026-04-30 10:13 46.75302 15.32918 34357 ft 454 kts 220°
2026-04-30 10:14 46.70334 15.27281 34346 ft 455 kts 220°
2026-04-30 10:14 46.63311 15.18110 34306 ft 452 kts 230°
2026-04-30 10:15 46.59290 15.11104 34286 ft 453 kts 234°
2026-04-30 10:15 46.55395 15.03941 34274 ft 453 kts 235°
2026-04-30 10:16 46.51446 14.96714 34278 ft 453 kts 234°
2026-04-30 10:17 46.45573 14.86024 34262 ft 453 kts 234°
2026-04-30 10:17 46.39690 14.75362 34240 ft 453 kts 235°
2026-04-30 10:18 46.35753 14.68253 34259 ft 453 kts 235°
2026-04-30 10:19 46.29841 14.57608 34302 ft 453 kts 234°
2026-04-30 10:19 46.25881 14.50501 34323 ft 453 kts 235°
2026-04-30 10:20 46.21930 14.43426 34335 ft 453 kts 234°
2026-04-30 10:20 46.16010 14.32863 34333 ft 452 kts 234°
2026-04-30 10:21 46.12084 14.25851 34329 ft 453 kts 234°
2026-04-30 10:21 46.08114 14.18792 34316 ft 452 kts 234°
2026-04-30 10:22 46.06156 14.15321 34147 ft 451 kts 234°
2026-04-30 10:22 46.04178 14.11824 33936 ft 449 kts 234°
2026-04-30 10:22 46.02215 14.08356 33725 ft 447 kts 234°
2026-04-30 10:22 46.00258 14.04901 33517 ft 445 kts 234°
2026-04-30 10:23 45.98311 14.01469 33304 ft 444 kts 234°
2026-04-30 10:23 45.96373 13.98059 33081 ft 443 kts 234°
2026-04-30 10:23 45.94429 13.94645 32757 ft 441 kts 234°
2026-04-30 10:23 45.92487 13.91238 32508 ft 438 kts 234°
2026-04-30 10:24 45.90587 13.87908 32173 ft 436 kts 234°
2026-04-30 10:24 45.88647 13.84518 31769 ft 433 kts 233°
2026-04-30 10:24 45.86739 13.81207 31342 ft 431 kts 233°
2026-04-30 10:24 45.84848 13.77927 30909 ft 429 kts 234°
2026-04-30 10:25 45.82954 13.74637 30416 ft 427 kts 234°
2026-04-30 10:25 45.81069 13.71360 29948 ft 424 kts 234°
2026-04-30 10:25 45.79202 13.68116 29506 ft 420 kts 234°
2026-04-30 10:25 45.77369 13.64931 29079 ft 416 kts 234°
2026-04-30 10:26 45.75534 13.61747 28668 ft 413 kts 234°
2026-04-30 10:26 45.73711 13.58582 28238 ft 409 kts 234°
2026-04-30 10:26 45.71921 13.55480 27826 ft 406 kts 234°
2026-04-30 10:26 45.70130 13.52379 27411 ft 402 kts 234°
2026-04-30 10:27 45.68353 13.49306 27002 ft 399 kts 234°
2026-04-30 10:27 45.66596 13.46269 26594 ft 396 kts 234°
2026-04-30 10:27 45.64869 13.43291 26184 ft 393 kts 234°
2026-04-30 10:27 45.63130 13.40292 25784 ft 390 kts 234°
2026-04-30 10:28 45.61402 13.37317 25372 ft 388 kts 234°
2026-04-30 10:28 45.59688 13.34366 24973 ft 385 kts 233°
2026-04-30 10:28 45.58007 13.31465 24563 ft 382 kts 233°
2026-04-30 10:28 45.56302 13.28526 24160 ft 380 kts 233°
2026-04-30 10:29 45.54636 13.25660 23767 ft 377 kts 233°
2026-04-30 10:29 45.52965 13.22794 23374 ft 375 kts 233°
2026-04-30 10:29 45.51328 13.19989 22993 ft 372 kts 233°
2026-04-30 10:29 45.49659 13.17133 22590 ft 370 kts 233°
2026-04-30 10:30 45.48022 13.14337 22202 ft 368 kts 233°
2026-04-30 10:30 45.46418 13.11599 21822 ft 365 kts 233°
2026-04-30 10:30 45.44794 13.08831 21438 ft 363 kts 233°
2026-04-30 10:30 45.43185 13.06093 21056 ft 361 kts 233°
2026-04-30 10:31 45.41577 13.03357 20677 ft 358 kts 233°
2026-04-30 10:31 45.39992 13.00663 20298 ft 356 kts 233°
2026-04-30 10:31 45.38412 12.97980 19924 ft 354 kts 233°
2026-04-30 10:31 45.36836 12.95308 19545 ft 352 kts 233°
2026-04-30 10:32 45.35274 12.92662 19172 ft 350 kts 233°
2026-04-30 10:32 45.33709 12.90013 18787 ft 348 kts 233°
2026-04-30 10:32 45.32201 12.87390 18409 ft 346 kts 236°
2026-04-30 10:32 45.30798 12.84594 18035 ft 343 kts 240°
2026-04-30 10:33 45.29572 12.81762 17652 ft 341 kts 242°
2026-04-30 10:33 45.28347 12.78901 17250 ft 341 kts 240°
2026-04-30 10:33 45.26994 12.76125 16851 ft 340 kts 237°
2026-04-30 10:33 45.25615 12.73407 16457 ft 340 kts 237°
2026-04-30 10:34 45.24248 12.70733 16078 ft 338 kts 236°
2026-04-30 10:34 45.22855 12.68011 15684 ft 337 kts 236°
2026-04-30 10:34 45.21495 12.65356 15299 ft 336 kts 236°
2026-04-30 10:34 45.20135 12.62700 14920 ft 335 kts 236°
2026-04-30 10:35 45.18771 12.60041 14528 ft 334 kts 235°
2026-04-30 10:35 45.17411 12.57390 14133 ft 332 kts 235°
2026-04-30 10:35 45.16063 12.54763 13756 ft 331 kts 235°
2026-04-30 10:35 45.14719 12.52121 13361 ft 330 kts 238°
2026-04-30 10:36 45.13862 12.49160 12930 ft 325 kts 264°
2026-04-30 10:36 45.14029 12.46039 12532 ft 317 kts 290°
2026-04-30 10:36 45.14790 12.43156 12215 ft 316 kts 295°
2026-04-30 10:36 45.15610 12.40272 11820 ft 315 kts 295°
2026-04-30 10:37 45.16402 12.37413 11445 ft 314 kts 294°
2026-04-30 10:37 45.17180 12.34525 11061 ft 312 kts 293°
2026-04-30 10:37 45.17933 12.31667 10698 ft 310 kts 293°
2026-04-30 10:37 45.18684 12.28790 10356 ft 307 kts 292°
2026-04-30 10:38 45.19213 12.25934 10285 ft 296 kts 280°
2026-04-30 10:38 45.19304 12.23053 10045 ft 292 kts 269°
2026-04-30 10:38 45.19164 12.20194 9735 ft 290 kts 267°
2026-04-30 10:38 45.18985 12.17385 9452 ft 286 kts 267°
2026-04-30 10:39 45.18814 12.14644 9308 ft 275 kts 267°
2026-04-30 10:39 45.18643 12.11972 9265 ft 267 kts 263°
2026-04-30 10:39 45.17976 12.09512 9268 ft 272 kts 234°
2026-04-30 10:39 45.16661 12.07607 9280 ft 274 kts 221°
2026-04-30 10:40 45.15205 12.05846 9270 ft 272 kts 220°
2026-04-30 10:40 45.13937 12.03911 8956 ft 270 kts 244°
2026-04-30 10:40 45.13573 12.01391 8570 ft 263 kts 281°
2026-04-30 10:40 45.14254 11.99044 8247 ft 253 kts 312°
2026-04-30 10:41 45.15581 11.97565 7891 ft 246 kts 340°
2026-04-30 10:41 45.17237 11.97143 7516 ft 240 kts
2026-04-30 10:41 45.18812 11.97851 7155 ft 237 kts 33°
2026-04-30 10:41 45.19952 11.99460 6795 ft 237 kts 59°
2026-04-30 10:42 45.20623 12.01588 6452 ft 237 kts 65°
2026-04-30 10:42 45.21476 12.03556 6064 ft 236 kts 45°
2026-04-30 10:42 45.22857 12.04774 5754 ft 235 kts 18°
2026-04-30 10:42 45.24449 12.05281 5429 ft 234 kts 13°
2026-04-30 10:43 45.26052 12.05723 5045 ft 236 kts 17°
2026-04-30 10:43 45.27575 12.06482 4803 ft 229 kts 28°
2026-04-30 10:43 45.28911 12.07642 4552 ft 223 kts 39°
2026-04-30 10:43 45.30114 12.08996 4295 ft 218 kts 42°
2026-04-30 10:44 45.31259 12.10376 4035 ft 214 kts 43°
2026-04-30 10:44 45.32373 12.11770 3710 ft 214 kts 44°
2026-04-30 10:44 45.33476 12.13180 3427 ft 211 kts 45°
2026-04-30 10:44 45.34548 12.14562 3193 ft 207 kts 45°
2026-04-30 10:45 45.35582 12.15899 3022 ft 203 kts 46°
2026-04-30 10:45 45.36642 12.17281 2999 ft 204 kts 46°
2026-04-30 10:45 45.37683 12.18636 2982 ft 205 kts 46°
2026-04-30 10:45 45.38739 12.20001 2796 ft 204 kts 45°
2026-04-30 10:46 45.39783 12.21343 2563 ft 193 kts 45°
2026-04-30 10:46 45.40726 12.22559 2347 ft 178 kts 45°
2026-04-30 10:46 45.41623 12.23722 2096 ft 171 kts 45°
2026-04-30 10:46 45.42474 12.24816 1886 ft 156 kts 43°
2026-04-30 10:47 45.43247 12.25803 1644 ft 142 kts 46°
2026-04-30 10:47 45.43939 12.26714 1393 ft 136 kts 44°
2026-04-30 10:47 45.44648 12.27606 1129 ft 135 kts 44°
2026-04-30 10:47 45.45353 12.28484 916 ft 135 kts 42°
2026-04-30 10:48 45.46053 12.29370 798 ft 135 kts 47°
2026-04-30 10:48 45.46725 12.30307 724 ft 135 kts 49°
2026-04-30 10:48 45.47389 12.31253 641 ft 136 kts 47°
2026-04-30 10:48 45.48107 12.32140 482 ft 136 kts 43°
2026-04-30 10:49 45.48823 12.33019 268 ft 135 kts 46°
2026-04-30 10:49 45.49519 12.33915 70 ft 135 kts 46°
2026-04-30 10:49 45.50171 12.34741 9 ft 114 kts 40°
2026-04-30 10:49 45.50659 12.35371 12 ft 71 kts 42°
2026-04-30 10:50 45.50923 12.35709 13 ft 37 kts 41°
2026-04-30 10:50 45.51126 12.35851 12 ft 25 kts 17°
2026-04-30 10:50 45.51241 12.35889 11 ft 6 kts 354°
2026-04-30 10:50 45.51277 12.35849 12 ft 6 kts 283°
2026-04-30 10:51 45.51248 12.35781 12 ft 13 kts 221°
2026-04-30 10:51 45.51134 12.35649 12 ft 23 kts 219°
2026-04-30 10:51 45.51016 12.35491 12 ft 23 kts 233°
2026-04-30 10:51 45.50957 12.35272 10 ft 24 kts 260°
2026-04-30 10:52 45.50852 12.35082 8 ft 25 kts 223°
2026-04-30 10:52 45.50720 12.34910 6 ft 26 kts 221°
2026-04-30 10:52 45.50585 12.34732 7 ft 25 kts 223°
2026-04-30 10:52 45.50455 12.34566 9 ft 25 kts 221°
2026-04-30 10:53 45.50358 12.34418 9 ft 17 kts 257°
2026-04-30 10:53 45.50435 12.34342 9 ft 14 kts 359°
2026-04-30 10:53 45.50493 12.34319 9 ft 5 kts 290°
2026-04-30 10:53 45.50489 12.34248 9 ft 5 kts 271°
2026-04-30 10:54 45.50489 12.34209 9 ft 0 kts 265°